Flag for U.S.A. Weather past 2 weeks in Cumberland, Maryland, U.S.A.

Now
86 °F

Passing clouds.


Feels Like: 85 °F
Forecast: 63 / 87 °F
Wind: N/A

Location: Eastern West Virginia Regional Airport

Current Time: Jul 31, 2015 at 3:29:37 PM

Latest Report: Jul 31, 2015 at 2:53 PM


Visibility: 10 mi

Pressure: 29.92 "Hg

Humidity: 39%

Dew point: 58 °F

Location of CumberlandLocation

Historic Weather in Cumberland — Graph

°F

Cumberland temperature yesterday

Maximum temperature yesterday: 89 °F (at 4:53 PM)
Minimum temperature yesterday: 73 °F (at 9:53 PM)
Average temperature yesterday: 79 °F

Past Weeks' High & Low Weather Summary

 TemperatureHumidityPressure
High91 °F (Jul 19, 2:53 PM)100% (Jul 24, 5:53 AM)30.07 "Hg (Jul 24, 5:53 AM)
Low56 °F (Jul 24, 5:53 AM)33% (Jul 31, 1:53 PM)29.64 "Hg (Jul 21, 5:53 PM)
Average76 °F72%29.93 "Hg
* Reported Jul 16 1:53 PM — Jul 31 1:53 PM, Cumberland, Weather by CustomWeather, © 2015

Note: Actual official high and low records may vary slightly from our data, if they occured in-between our weather recording intervals... More about our weather records

Advertising

Cumberland weather history for previous 24 hours

 ConditionsComfort  
Time TempWeatherWind HumidityBarometerVisibility
1:53 PM
Fri, Jul 31
86 °FSunny.10 mph33%29.93 "Hg10 mi
12:53 PM83 °FScattered clouds.10 mph38%29.94 "Hg10 mi
11:53 AM84 °FSunny.7 mph38%29.96 "Hg10 mi
10:53 AM81 °FSunny.5 mph49%29.97 "Hg10 mi
9:53 AM79 °FSunny.8 mph50%29.97 "Hg10 mi
8:53 AM77 °FPassing clouds.6 mph54%29.97 "Hg10 mi
7:53 AM71 °FSunny.3 mph68%29.96 "Hg10 mi
6:53 AM65 °FClear.No wind81%29.95 "Hg10 mi
5:53 AM64 °FClear.3 mph81%29.94 "Hg10 mi
4:53 AM66 °FPassing clouds.5 mph75%29.94 "Hg10 mi
3:53 AM67 °FClear.3 mph73%29.94 "Hg10 mi
2:53 AM67 °FPassing clouds.8 mph76%29.94 "Hg10 mi
1:53 AM70 °FPassing clouds.6 mph68%29.93 "Hg10 mi
12:53 AM75 °FPassing clouds.9 mph54%29.94 "Hg10 mi
11:53 PM
Thu, Jul 30
73 °FPassing clouds.8 mph59%29.93 "Hg10 mi
10:53 PM73 °FPassing clouds.7 mph62%29.93 "Hg10 mi
9:53 PM73 °FClear.6 mph64%29.91 "Hg10 mi
8:53 PM81 °FSunny.9 mph44%29.89 "Hg10 mi
7:53 PM84 °FSunny.7 mph43%29.88 "Hg10 mi
6:53 PM86 °FSunny.7 mph42%29.87 "Hg10 mi
5:53 PM87 °FSunny.10 mph37%29.86 "Hg10 mi
4:53 PM89 °FScattered clouds.14 mph46%29.85 "Hg10 mi
3:53 PM87 °FScattered clouds.8 mph57%29.85 "Hg10 mi
Weather by CustomWeather, © 2015

See weather overviewHow to use our weather pages